Other Public Products
Issued by NWS Grand Forks, ND

Home | Current Version | Previous Version | Text Only | Print | Product List | Glossary On
Versions: 1 2 3 4 5 6 7 8 9 10 11 12 13 14 15 16 17 18 19 20 21 22 23 24 25 26 27 28 29 30 31 32 33 34 35 36 37 38 39 40 41 42 43 44 45 46 47 48 49 50
000
FPUS83 KFGF 171731
OPUFGF
PRAIRIE TO PINES WEATHER ROUNDUP
NATIONAL WEATHER SERVICE EASTERN NORTH DAKOTA/GRAND FORKS ND
1200 PM CDT TUE OCT 17 2017

 **SATELLITE DATA USED TO AUGMENT SKY COVER AT AUTOMATED STATIONS**
 *****  WEATHER ACROSS EASTERN NORTH DAKOTA  *****

CITY           SKY/WX    TMP DP  RH WIND       PRES   REMARKS
GRAND FORKS    FAIR      66  39  37 S16       29.82F
GRAND FORKS AF FAIR      66  37  34 SW17      29.81F
GRAND CITY NWS NOT AVBL
BUXTON           N/A     66  41  40 S12         N/A
DEVILS LAKE    FAIR      61  37  41 SW12      29.81F
FARGO          FAIR      61  42  49 S14       29.90F
WAHPETON ARPT  NOT AVBL
$$

 *****  WEATHER ACROSS CENTRAL AND WESTERN NORTH DAKOTA  *****

CITY           SKY/WX    TMP DP  RH WIND       PRES   REMARKS
JAMESTOWN      FAIR      69  33  26 SW12      29.86F
BISMARCK       FAIR      68  32  26 SW12      29.89F
MINOT          FAIR      67  31  26 SW16      29.78F
MINOT AFB      FAIR      67  31  26 W17G23    29.75F
GARRISON         N/A     64  36  35 SW10      29.83F
WILLISTON      FAIR      61  34  36 S7        29.81F
DICKINSON      FAIR      66  29  24 W18       29.88F
HETTINGER      FAIR      67  28  23 W15       29.96F
$$

 *****  OTHER OBSERVATIONS NORTHEAST NORTH DAKOTA  *****

CITY           SKY/WX    TMP DP  RH WIND       PRES   REMARKS
WALHALLA       FAIR     N/A N/A N/A SW12      29.75F
LANGDON        FAIR      64  36  34 W16       29.77F
CAVALIER       FAIR      66  39  37 SW12      29.76F
GRAFTON        FAIR      68  36  30 SW16G26   29.79F
CANDO          FAIR      64  34  32 W14       29.79F
FORT TOTTEN      N/A     65  34  31 SW8       29.95
ROLLA          FAIR      59  32  36 W13       29.76F
RUGBY          FAIR      66  32  28 W16       29.76F
 ***** THE ABOVE OBSERVATIONS ARE NON NWS ARE NOT QUALITY
        CONTROLLED AND MAY MIS-REPORT RAIN FOR SNOW...
$$

 *****  OTHER OBSERVATIONS SOUTHEAST NORTH DAKOTA *****

CITY           SKY/WX    TMP DP  RH WIND       PRES   REMARKS
COOPERSTOWN    FAIR      68  36  30 SW15      29.84F
VALLEY CITY    FAIR      68  37  32 SW20G26   29.87F
OAKES          NOT AVBL
GWINNER        SUNNY     68  39  34 SW14      29.91F
BUFFALO          N/A     68  33  27 SW15        N/A
WYNDMERE       NOT AVBL
 ***** THE ABOVE OBSERVATIONS ARE NON NWS ARE NOT QUALITY
       CONTROLLED AND MAY MIS-REPORT RAIN FOR SNOW...
$$

  *****  WEATHER ACROSS NORTHERN MINNESOTA  *****

CITY           SKY/WX    TMP DP  RH WIND       PRES   REMARKS
FLAG ISLAND    FAIR      54  41  62 SE14      29.82F
WARROAD        FAIR      64  43  45 SW15G22   29.83F
ROSEAU         FAIR      64  43  45 SW15G21   29.82F
HALLOCK        FAIR      64  37  36 S22       29.77F
THF RVR FALLS  FAIR      62  37  39 SW16      29.86F
HALSTAD          N/A     63  39  42 S15         N/A
FOSSTON        FAIR      63  37  39 S17G24    29.89F
BAUDETTE       FAIR      62  38  40 MISG      29.87F
WASKISH        PTSUNNY   66  37  34 SW12G21   29.88F
CROOKSTON      FAIR      63  39  42 S16       29.85F
$$
  *****  WEATHER ACROSS CENTRAL AND WEST MINNESOTA  *****

CITY           SKY/WX    TMP DP  RH WIND       PRES   REMARKS
BEMIDJI        FAIR      65  37  36 S16       29.90F
PARK RAPIDS    FAIR      65  41  41 S12       29.93F
WADENA         FAIR      64  39  39 SW10      29.94F
DETROIT LAKES  FAIR      63  39  42 SW9       29.93F
MOORHEAD       FAIR      61  43  51 S10       29.91F
FERGUS FALLS   FAIR      64  41  42 S10       29.94F
ELBOW LAKE     FAIR      64  41  43 SW8       29.97F
MORRIS MN      FAIR      66  46  48 S8        29.96F
STAPLES        FAIR      64  36  34 S12       29.95F
WHEATON        FAIR      70  37  30 SW8       29.96F
$$
  *****  WEATHER ELSEWHERE ACROSS MINNESOTA  *****

CITY           SKY/WX    TMP DP  RH WIND       PRES   REMARKS
DULUTH         FAIR      65  39  38 S9        29.96F
INTRNTL FALLS  FAIR      62  36  37 S6        29.90F
ELY            FAIR      63  34  34 SW7       29.94S
CLOQUET        FAIR      64  37  36 S8        29.96F
BRAINERD       FAIR      64  39  39 S9        29.97F
HIBBING        FAIR      58  41  53 VRB7      29.95F
ALEXANDRIA     FAIR      63  42  46 S6        29.99S
SAINT CLOUD    FAIR      63  45  51 S7        29.99F
MINNEAPOLIS    FAIR      61  46  57 VRB3      30.02F
$$

  *****  WEATHER ACROSS SOUTH DAKOTA  *****

CITY           SKY/WX    TMP DP  RH WIND       PRES   REMARKS
SIOUX FALLS    FAIR      67  48  50 VRB3      30.04F
BROOKINGS      FAIR      65  46  50 S3        30.02F
WATERTOWN      FAIR      63  44  50 S7        30.00S
HURON          FAIR      65  43  44 MISG      30.00F
SISSETON         N/A     71  39  31 SW12      29.94F
ABERDEEN       FAIR      60  43  53 S8        29.97F
MITCHELL       FAIR      68  44  42 S6        30.03F
PIERRE         FAIR      59  36  42 SW7       29.99F
MOBRIDGE       FAIR      63  37  38 S8        29.93F
RAPID CITY     FAIR      70  29  21 S5        30.04F
$$

  *****  SOME WEATHER IN NEARBY STATES *****

CITY           SKY/WX    TMP DP  RH WIND       PRES   REMARKS
GLASGOW MT     FAIR      68  27  21 SW15      29.78F
GREAT FALLS MT FAIR      65  21  18 SW26G39   29.86F
CHEYENNE WY    FAIR      67   8  10 W18G24    30.25F
SCOTTSBLUFF NE FAIR      61  29  29 W3        30.15F
OMAHA NE       FAIR      62  43  49 S7        30.10F
DES MOINES IA  FAIR      67  42  40 SW14      30.12F
DAVENPORT IA   FAIR      66  42  41 SW17G24   30.19F
CHICAGO IL     FAIR      65  42  43 SW20G26   30.18F
EAU CLAIRE WI  FAIR      61  44  53 S6        30.03F
LA CROSSE WI   FAIR      62  45  53 VRB6      30.08S
$$

  *****  SOME NATIONAL WEATHER *****

CITY           SKY/WX    TMP DP  RH WIND       PRES   REMARKS
LA GUARDIA NY  FAIR      55  29  36 CALM      30.31F
RALEIGH NC     FAIR      60  37  42 NE12      30.35F
ATLANTA GA     FAIR      64  41  42 E12       30.33F
NEW ORLEANS LA FAIR      67  56  67 NE8       30.20F
OKLAHOMA CITY  FAIR      67  42  40 S17       30.25F
ALBUQUERQUE NM FAIR      61  32  33 VRB3      30.38S
SALT LAKE CITY FAIR      57  26  30 NW5       30.29R
LOS ANGELES CA FAIR      80  50  34 NW3       30.01S
BOISE ID       FAIR      50  32  50 NE3       30.18S
SEATTLE WA     CLOUDY    54  50  86 SW20G31   29.93R
$$

*** WEATHER ACROSS MANITOBA...SASKATCHEWAN AND ONTARIO ***
                ***ONTARIO***

CITY           SKY/WX    TMP DP  RH WIND       PRES   REMARKS
GERALDTON      PTSUNNY   52  34  50 W9G20     29.84R
THUNDER BAY    PTSUNNY   57  37  47 SW9       29.92S
SIOUX LOOKOUT  PTSUNNY   55  37  50 W3        29.88F
TORONTO        MOSUNNY   64  39  39 SW16G29   30.11F
BIG TROUT LK   PTSUNNY   37  32  81 W8        29.84R
PICKLE LAKE    CLOUDY    41  32  70 W8        29.86R
DRYDEN         CLOUDY    54  37  54 S7        29.87F
KENORA         PTSUNNY   57  39  51 S13G22    29.83F
$$
                *** MANITOBA***

CITY           SKY/WX    TMP DP  RH WIND       PRES   REMARKS
BRANDON        CLOUDY    57  36  44 SW12      29.69F
DAUPHIN        SUNNY     63  34  34 SW7       29.62F
ISLAND LAKE    NOT AVBL
PILOT MOUND      N/A     61  36  39 SW12        N/A
THE PAS        MOSUNNY   50  37  62 SE20      29.59F
THOMPSON       CLOUDY    32  30  93 E6        29.75F
WINNIPEG       MOSUNNY   61  37  41 SW13G20   29.73F
LYNN LAKE      FRZ RAIN  32  32 100 SE10G17   29.63F WCI  24
CHURCHILL      PTSUNNY   25  23  93 W9        29.81F WCI  15
GILLAM         CLOUDY    30  27  86 CALM      29.82F
$$
                ***SASKATCHEWAN***

CITY           SKY/WX    TMP DP  RH WIND       PRES   REMARKS
ESTEVAN        PTSUNNY   63  30  29 SW17      29.73
KINDERSLEY     PTSUNNY   59  36  41 S17G25    29.47F
LLOYDMINSTER   PTSUNNY   54  37  54 S16       29.34F
PRINCE ALBERT  PTSUNNY   46  34  61 S3        29.49
REGINA         PTSUNNY   59  32  36 SW15      29.64F
YORKTON        SUNNY     54  32  43 S8        29.60F
N. BATTLEFORD  SUNNY     52  36  54 E10       29.44F



USA.gov is the U.S. government's official web portal to all federal, state and local government web resources and services.